DW6368 Weather Reports


Display with metric or nautical units.
time (UTC)temp
F
wind
direction
speed
MPH
gust
MPH
rain 1hr
in
rain 24hr
in
rain mn
in
humidity
%
barometer
mb
20260505124824 56 179 0.0 2.0 0.00 0.20 0.13 99 1012.7
20260505122823 55 233 1.0 2.0 0.00 0.20 0.13 98 1012.4
20260505121803 55 328 1.0 2.0 0.00 0.20 0.13 98 1012.4
20260505115823 56 338 1.0 1.0 0.04 0.20 0.13 98 1012.5
20260505114803 56 339 0.0 2.0 0.04 0.20 0.13 98 1012.5
20260505112823 56 348 0.0 3.0 0.04 0.20 0.13 98 1012.6
20260505111802 56 63 1.0 3.0 0.04 0.20 0.13 98 1012.7
20260505101803 57 51 0.0 2.0 0.00 0.16 0.09 98 1012.7
20260505095802 56 309 0.0 3.0 0.02 0.16 0.09 97 1012.7
20260505094824 56 154 1.0 3.0 0.02 0.16 0.09 97 1012.7
20260505092803 57 161 0.0 2.0 0.02 0.16 0.09 97 1013.1
20260505091802 57 183 0.0 3.0 0.01 0.15 0.08 97 1013.2
20260505085803 57 145 1.0 2.0 0.06 0.14 0.07 97 1013.3
20260505084803 57 162 1.0 2.0 0.06 0.14 0.07 97 1013.4
20260505082803 57 212 0.0 1.0 0.05 0.13 0.06 97 1013.5
20260505081803 57 215 0.0 1.0 0.01 0.09 0.02 96 1013.6
20260505075803 57 25 1.0 2.0 0.02 0.00 0.00 96 1013.8
20260505074803 57 14 1.0 2.0 0.01 0.05 0.05 95 1013.9
20260505072823 58 7 1.0 2.0 0.00 0.04 0.04 94 1014.0
20260505071803 58 12 1.0 2.0 0.00 0.04 0.04 94 1014.0
20260505065803 58 59 0.0 1.0 0.04 0.04 0.04 92 1013.9
20260505064803 59 355 0.0 2.0 0.03 0.03 0.03 91 1014.0
20260505062802 60 9 0.0 4.0 0.02 0.02 0.02 90 1014.0
20260505061845 60 231 1.0 4.0 0.00 0.00 0.00 88 1014.1
20260505055803 60 203 1.0 4.0 0.00 0.00 0.00 86 1014.2
20260505054802 60 205 1.0 4.0 0.00 0.00 0.00 87 1014.2
20260505052803 60 204 1.0 3.0 0.00 0.00 0.00 86 1014.2
20260505051803 60 224 1.0 3.0 0.00 0.00 0.00 86 1014.3
20260505035803 59 224 1.0 5.0 0.00 0.00 0.00 87 1014.3
20260505034802 59 233 2.0 5.0 0.00 0.00 0.00 87 1014.3
20260505032803 59 235 3.0 10.0 0.00 0.00 0.00 87 1014.2
20260505031803 60 246 2.0 10.0 0.00 0.00 0.00 87 1014.0
20260505025803 60 267 4.0 10.0 0.00 0.00 0.00 85 1013.8
20260505024803 60 237 5.0 12.0 0.00 0.00 0.00 84 1013.9
20260505022803 61 251 5.0 9.0 0.00 0.00 0.00 83 1014.0
20260505021824 61 234 6.0 15.0 0.00 0.00 0.00 82 1014.0
20260505015802 62 230 6.0 16.0 0.00 0.00 0.00 79 1013.7
20260505014803 63 226 8.0 13.0 0.00 0.00 0.00 77 1013.7
20260505012802 65 225 4.0 11.0 0.00 0.00 0.00 73 1013.7
20260505011803 66 227 6.0 13.0 0.00 0.00 0.00 67 1013.7
20260505005802 67 230 4.0 11.0 0.00 0.00 0.00 67 1013.8
20260505004803 67 247 4.0 11.0 0.00 0.00 0.00 65 1013.6
20260505002802 68 248 4.0 13.0 0.00 0.00 0.00 66 1013.8
20260505001803 68 222 4.0 11.0 0.00 0.00 0.00 65 1013.9
20260504235803 68 234 4.0 12.0 0.00 0.00 0.00 63 1013.8
20260504234802 69 233 5.0 12.0 0.00 0.00 0.00 61 1013.6
20260504232802 70 239 4.0 12.0 0.00 0.00 0.00 61 1013.4
20260504231823 71 238 5.0 12.0 0.00 0.00 0.00 60 1013.5
20260504225802 71 237 5.0 14.0 0.00 0.00 0.00 60 1013.6
20260504224803 71 239 6.0 14.0 0.00 0.00 0.00 62 1013.7
20260504222803 70 236 8.0 14.0 0.00 0.00 0.00 65 1014.2
20260504221803 70 245 7.0 14.0 0.00 0.00 0.00 65 1014.4
20260504215803 70 232 6.0 16.0 0.00 0.00 0.00 67 1014.4
20260504214803 70 231 6.0 16.0 0.00 0.00 0.00 68 1014.4
20260504212824 69 235 6.0 14.0 0.00 0.00 0.00 71 1014.7
20260504211824 68 219 5.0 14.0 0.00 0.00 0.00 73 1014.8
20260504205803 67 224 6.0 13.0 0.00 0.00 0.00 71 1014.8
20260504204824 68 214 4.0 13.0 0.00 0.00 0.00 70 1014.7
20260504202802 67 229 4.0 10.0 0.00 0.00 0.00 74 1014.8
20260504201803 67 231 4.0 10.0 0.00 0.00 0.00 72 1014.7
20260504195803 68 217 5.0 13.0 0.00 0.00 0.00 67 1014.8
20260504194802 69 231 6.0 16.0 0.00 0.00 0.00 68 1015.0
20260504192824 69 228 5.0 12.0 0.00 0.00 0.00 67 1015.1
20260504191823 69 242 5.0 10.0 0.00 0.00 0.00 65 1015.1
20260504185803 67 225 4.0 11.0 0.00 0.00 0.00 67 1015.0
20260504184803 69 226 5.0 10.0 0.00 0.00 0.00 66 1015.2
20260504182802 69 227 4.0 11.0 0.00 0.00 0.00 66 1015.0
20260504181803 69 211 3.0 7.0 0.00 0.00 0.00 67 1015.1
20260504175802 69 227 4.0 12.0 0.00 0.00 0.00 67 1015.4
20260504174803 70 222 4.0 9.0 0.00 0.00 0.00 64 1015.3
20260504172803 70 274 4.0 9.0 0.00 0.00 0.00 63 1014.9
20260504171802 70 198 1.0 7.0 0.00 0.00 0.00 64 1015.0